Weather in Domashka

Russia / Samara Oblast     52°59′06″N   50°46′24″E
temp.,
°C
wind,
m/s
gust,
m/s
humid.,
%
clouds,
%
prec.,
mm/h
press.,
hPa
HPBL,
m
17 may, mon
mon1701:00+20s38505 0.0 101799
04:00+19sse355160 0.0 101896
07:00+22sse255127 0.0 1019181
10:00+28sse333129 0.0 1019558
13:00+31s56195 0.0 10182680
16:00+32s44185 0.0 10173769
19:00+27s33315 0.0 101730
22:00+22ssw33363 0.0 101823
18 may, tue
tue1801:00+20s11371 0.0 101711
04:00+19se12380 0.0 101711
07:00+22ese12390 0.0 101874
10:00+28ese23270 0.0 1017554
13:00+31ese22190 0.0 10162458
16:00+32ene22165 0.0 10163823
19:00+27ene34342 0.0 101563
22:00+22e33393 0.0 101634
19 may, wed
wed1901:00+19ne35403 0.0 101659
04:00+18e412745 0.0 1016264
07:00+20e511665 0.0 1016349
10:00+26e574473 0.0 1016742
13:00+29e56355 0.0 10161632
16:00+29ese66320 0.0 10152410
19:00+25ese612450 0.0 1015469
22:00+21ese614520 0.0 1017443
20 may, thu
thu2001:00+18ese615520 0.0 1018454
04:00+16ese514560 0.0 1019417
07:00+17ese613590 0.0 1019506
10:00+22se79380 0.0 10191208
13:00+25se79310 0.0 10191838
16:00+25se78290 0.0 10192004
19:00+23se484256 0.0 1019218
22:00+18se41051100 0.0 1020178
21 may, fri
fri2101:00+15se310555 0.0 1020157
04:00+14se35560 0.0 102071
07:00+17se35525 0.0 1021185
10:00+23se45355 0.0 10211052
13:00+26se34280 0.0 10202242
16:00+27se222650 0.0 10202521
19:00+23ese36430 0.0 1020148
22:00+18sse47483 0.0 102196